Regional Weather Roundup
Issued by NWS

Home | Current Version | Previous Version | Text Only | Print | Product List | Glossary On
Versions: 1 2 3 4 5 6 7 8 9 10 11 12 13 14 15 16 17 18 19 20 21 22 23 24 25 26 27
000
ASUS44 KBMX 251510
RWRAL

ALABAMA REGIONAL WEATHER ROUNDUP
NATIONAL WEATHER SERVICE BIRMINGHAM AL
1000 AM CDT MON SEP 25 2017

NOTE: "FAIR" INDICATES FEW OR NO CLOUDS BELOW 12,000 FEET
WITH NO SIGNIFICANT WEATHER AND/OR OBSTRUCTIONS TO VISIBILITY.

THE REMARK "TC" DENOTES TEMPERATURE IN DEGREES CELSIUS.

ALZ001>011-014-016>018-020-251600-
NORTH ALABAMA

CITY           SKY/WX    TMP DP  RH WIND       PRES   REMARKS
MUSCLE SHOALS  SUNNY     80  68  66 SE5       30.06S
HUNTSVILLE     PTSUNNY   79  70  74 SE6       30.05S
DECATUR        SUNNY     79  69  71 CALM      30.06S
HALEYVILLE     FAIR      80  68  66 SE6       30.08S
GADSDEN        SUNNY     79  69  71 E3        30.06S
$$

ALZ012-013-022-023-030>036-040>044-251600-
WEST CENTRAL ALABAMA

CITY           SKY/WX    TMP DP  RH WIND       PRES   REMARKS
TUSCALOOSA     CLOUDY    81  69  67 E8        30.02S
DEMOPOLIS        N/A     76  67  74 E3        30.00S
$$

ALZ015-024>026-033>036-041>044-251600-
CENTRAL ALABAMA

CITY           SKY/WX    TMP DP  RH WIND       PRES   REMARKS
BIRMINGHAM     CLOUDY    78  65  63 E5        30.06S
MONTGOMERY     SUNNY     83  67  58 SE5       30.00F
SHELBY CO ARPT CLOUDY    76  69  79 VRB3      30.03F
MAXWELL AFB    SUNNY     80  68  66 NE6       30.00S
GREENVILLE     PTSUNNY   78  68  71 CALM      30.00R
SELMA          FAIR      79  68  69 SE8       30.00S
PRATTVILLE     FAIR      80  68  66 E3        30.00S
BESSEMER       FAIR      75  67  76 E6        30.05R
TALLADEGA      PTSUNNY  N/A N/A N/A MISG      30.05S
PELL CITY      MOSUNNY   77  70  78 CALM      30.05S
MARION         CLOUDY    75  68  80 MISG      30.00S
SYLACAUGA      FAIR      78  72  84 CALM      30.04S
$$

ALZ019-021-028-029-037-038-045>048-251600-
EAST CENTRAL ALABAMA

CITY           SKY/WX    TMP DP  RH WIND       PRES   REMARKS
ANNISTON       PTSUNNY   78  67  68 E6        30.05S
ALEXANDER CITY CLOUDY    77  68  72 CALM      30.03F
AUBURN         NOT AVBL
$$

ALZ051>064-251600-
SOUTHWEST ALABAMA

CITY           SKY/WX    TMP DP  RH WIND       PRES   REMARKS
MOBILE         CLOUDY    76  69  79 E10       29.97R
BROOKLEY FIELD CLOUDY    77  72  84 NE7       29.97R
EVERGREEN      CLOUDY    74  71  91 NE3       29.99S
$$

ALZ049-050-065>069-251600-
SOUTHEAST ALABAMA

CITY           SKY/WX    TMP DP  RH WIND       PRES   REMARKS
DOTHAN         MOSUNNY   82  70  66 NE5       30.02R
OZARK          MOSUNNY   80  69  70 CALM      29.99R
TROY           PTSUNNY   81  70  69 VRB5      30.01R
EUFAULA        NOT AVBL
$$




USA.gov is the U.S. government's official web portal to all federal, state and local government web resources and services.